#timestamp,LO_Frequency,Hit,StdDev 
1621699215.2,286047000.6,N
1621699235.0,286047002.6,N
1621699236.0,286047002.6,N
1621699255.8,286047001.8,N
1621699275.6,286047002.5,N
1621699295.5,286047000.0,N
1621699315.3,286047001.2,N
1621699335.1,286047002.2,N
1621699355.9,286047002.6,N
1621699375.7,286047002.7,N
1621699395.6,286047002.8,N
1621699415.4,286047001.1,N
1621699435.2,286047002.3,N
1621699455.1,286047001.0,N
1621699456.0,286047001.0,N
1621699475.8,286046999.0,N
1621699495.7,286046998.2,N
1621699515.5,286046998.9,N
1621699535.3,286046998.4,N
1621699555.2,286046998.7,N
1621699575.0,286046999.2,N
1621699575.9,286046999.2,N
1621699595.7,286046998.4,N
1621699615.6,286046999.0,N
1621699635.4,286047001.0,N
1621699655.3,286046998.8,N
1621699675.1,286046997.0,N
1621699695.8,286046996.2,N
1621699715.7,286046993.7,Y
1621699735.5,286046994.3,P
1621699755.4,286046994.4,N
1621699775.2,286046994.5,N
1621699795.0,286046991.7,Y
1621699795.9,286046991.7,P
1621699815.8,286046997.1,N
1621699835.6,286046997.5,N
1621699855.5,286046997.2,N
1621699875.3,286046997.9,N
1621699895.1,286046997.6,N
1621699915.9,286046995.3,N
1621699935.7,286046997.5,N
1621699955.5,286046997.3,N
1621699975.4,286046997.8,N
1621699995.2,286046995.8,N
1621700015.1,286046995.4,N
1621700016.0,286046995.4,N
1621700035.8,286046993.9,Y
1621700055.6,286046999.6,P
1621700075.5,286046999.5,N
1621700095.3,286046999.0,N
1621700115.1,286046998.8,N
1621700135.9,286046998.9,N
1621700155.7,286046999.5,N
1621700175.6,286046999.0,N
1621700195.4,286046999.3,N
1621700215.2,286046997.4,N
1621700235.1,286046997.2,N
1621700236.0,286046997.2,N
1621700255.8,286046996.9,N
1621700275.6,286046997.8,N
1621700295.5,286046996.6,Y
1621700315.3,286046999.0,P
1621700335.2,286046996.8,P
1621700355.9,286046997.8,N
1621700375.7,286046998.0,N
1621700395.6,286046995.2,Y
1621700415.4,286046999.0,P
1621700435.2,286046999.0,N
1621700455.1,286047000.4,N
1621700456.0,286047000.4,N
1621700475.8,286047000.5,N
1621700495.7,286047000.2,N
1621700515.5,286047000.4,N
1621700535.3,286047000.9,N
1621700555.2,286046998.5,N
1621700575.0,286046998.2,N
1621700575.9,286046998.2,N
1621700595.8,286046998.7,N
1621700615.6,286046996.8,Y
1621700635.4,286046997.2,P
1621700655.3,286046999.6,N
1621700675.1,286046999.5,N
1621700695.9,286046999.0,N
1621700715.7,286046999.2,N
1621700735.5,286046997.4,Y
1621700755.4,286046997.3,P
1621700775.2,286046999.1,N
1621700795.0,286046997.4,P
1621700796.0,286046997.4,Y
1621700815.8,286046998.7,P
1621700835.6,286046999.3,N
1621700855.5,286046999.5,N
1621700875.3,286046997.1,Y
1621700895.1,286046998.9,P
1621700915.9,286046999.1,P
1621700935.7,286046998.8,P
1621700955.6,286046999.2,Y
1621700975.4,286046998.7,P
1621700995.2,286046998.3,P
1621701015.1,286046999.9,N
1621701016.0,286046999.9,N
1621701035.8,286047002.8,Y
1621701055.7,286047001.9,P
1621701075.5,286047003.7,N
1621701095.3,286047003.4,N
1621701115.2,286047005.7,Y
1621701135.0,286047005.7,P
1621701135.9,286047005.7,P
1621701155.7,286047005.9,P
1621701175.6,286047003.0,N
1621701195.4,286047003.9,N
1621701215.3,286047004.0,N
1621701235.1,286047003.7,N
1621701255.8,286047002.3,N
1621701275.7,286047001.5,N
1621701295.5,286047003.7,N
1621701315.4,286047006.0,Y
1621701335.2,286047000.5,P
1621701355.0,286046999.4,N
1621701355.9,286046999.4,N
1621701375.8,286046997.4,N
1621701395.6,286047000.8,N
1621701415.4,286046998.2,N
1621701435.3,286047000.8,N
1621701455.1,286047000.6,N
1621701475.9,286046997.1,N
1621701495.7,286046999.2,N
1621701515.5,286046996.7,N
1621701535.4,286047000.5,N
1621701555.2,286047006.7,Y
1621701575.0,286047009.1,P
1621701575.9,286047009.1,N
1621701595.8,286047002.9,N
1621701615.6,286047006.0,N
1621701635.5,286047005.7,N
1621701655.3,286047005.2,N
1621701675.1,286047004.1,N
1621701695.9,286047003.8,N
1621701715.7,286047003.8,N
1621701735.5,286047001.9,N
1621701755.4,286047002.0,N
1621701775.2,286047000.1,N
1621701795.1,286046999.7,N
1621701796.0,286046999.7,N
1621701815.8,286047002.5,N
1621701835.6,286047003.9,N
1621701855.5,286047002.8,N
1621701875.3,286047001.9,N
1621701895.1,286047000.1,N
1621701915.9,286046999.7,N
1621701935.7,286046999.8,N
1621701955.6,286047000.2,N
1621701975.4,286047000.8,N
1621701995.2,286047001.2,N
1621702015.1,286047000.8,N
1621702016.0,286047000.8,N
1621702035.8,286047001.2,N
1621702055.6,286047001.1,N
1621702075.5,286046998.5,N
1621702095.3,286047000.6,N
1621702115.2,286046999.9,N
1621702135.9,286046998.8,N
1621702155.7,286046999.6,N
1621702175.6,286046997.9,N
1621702195.4,286046993.6,Y
1621702215.2,286046991.7,P
1621702235.1,286046996.2,N
1621702236.0,286046996.2,N
1621702255.8,286046996.3,N
1621702275.7,286046999.2,N
1621702295.5,286046995.3,N
1621702315.3,286046997.4,N
1621702335.2,286046997.0,N
1621702355.0,286047000.3,N
1621702355.9,286047000.3,N
1621702375.8,286047000.9,N
1621702395.6,286046998.3,N
1621702415.4,286046998.9,N
1621702435.3,286046996.6,N
1621702455.1,286046998.3,N
1621702475.8,286046999.4,N
1621702495.7,286046998.1,N
1621702515.5,286047001.2,N
1621702535.4,286047000.7,N
1621702555.2,286047001.0,N
1621702575.0,286046997.0,N
1621702575.9,286046997.0,N
1621702595.8,286046999.3,N
1621702615.6,286047000.7,N
1621702635.4,286047000.2,N
1621702655.3,286047002.8,N
1621702675.1,286047002.1,N
1621702695.9,286047000.2,N
1621702715.7,286046998.7,N
1621702735.5,286047000.4,N
1621702755.4,286047000.0,N
1621702775.2,286047002.7,N
1621702795.1,286046999.9,N
1621702796.0,286046999.9,N
